This is the latest recevied weather packets stored in our database for station/object DC4THF-13. If no packets are shown the sender has not sent any weather packets the latest 10 day(s).
| Time | Temp. | Humidity | Pressure | Rain* | Wind** | Luminosity | Snow |
|---|---|---|---|---|---|---|---|
| 1777728766 | 27.78° C | 13% | 1012.1 hPa | 0 mm | - | - | - |
| 1777727559 | 27.78° C | 20% | 1012.5 hPa | 0 mm | - | - | - |
| 1777726955 | 27.22° C | 21% | 1012.6 hPa | 0 mm | - | - | - |
| 1777726351 | 27.78° C | 20% | 1012.9 hPa | 0 mm | - | - | - |
| 1777725747 | 27.22° C | 21% | 1013 hPa | 0 mm | - | - | - |
| 1777725143 | 27.22° C | 21% | 1013.2 hPa | 0 mm | - | - | - |
| 1777724540 | 26.67° C | 21% | 1013.4 hPa | 0 mm | - | - | - |
| 1777723936 | 27.22° C | 22% | 1013.4 hPa | 0 mm | - | - | - |
| 1777723393 | 26.67° C | 22% | 1013.5 hPa | 0 mm | - | - | - |
| 1777722789 | 27.22° C | 23% | 1013.9 hPa | 0 mm | - | - | - |
| 1777722186 | 26.11° C | 22% | 1014 hPa | 0 mm | - | - | - |
| 1777721583 | 26.67° C | 22% | 1014.2 hPa | 0 mm | - | - | - |
| 1777720980 | 26.67° C | 22% | 1014.3 hPa | 0 mm | - | - | - |
| 1777720377 | 26.11° C | 23% | 1014.5 hPa | 0 mm | - | - | - |
| 1777719774 | 26.67° C | 23% | 1014.7 hPa | 0 mm | - | - | - |
| 1777719170 | 26.11° C | 23% | 1014.9 hPa | 0 mm | - | - | - |
| 1777718567 | 25.56° C | 24% | 1014.9 hPa | 0 mm | - | - | - |
| 1777717964 | 25° C | 23% | 1015.3 hPa | 0 mm | - | - | - |
| 1777717361 | 25.56° C | 23% | 1015.4 hPa | 0 mm | - | - | - |
| 1777716757 | 25.56° C | 24% | 1015.5 hPa | 0 mm | - | - | - |
| 1777716154 | 25° C | 24% | 1015.7 hPa | 0 mm | - | - | - |
| 1777715551 | 25° C | 24% | 1015.9 hPa | 0 mm | - | - | - |
| 1777714948 | 24.44° C | 24% | 1016.2 hPa | 0 mm | - | - | - |
| 1777714345 | 24.44° C | 25% | 1016.3 hPa | 0 mm | - | - | - |
| 1777713741 | 23.89° C | 25% | 1016.5 hPa | 0 mm | - | - | - |
* Rain latest hour (hover to see other rain measurements)
** Current wind speed in m/s (hover to see current wind gust speed)